Simultaneous Nadir Overpasses (SNOs) Predictions

Prediction of SNOs between METOP-C and LANDSAT-8 Satellite Orbit:

Table of predicted SNOs for the next 14.0 days since TLE Epoch: 4/6/2024
Index Date (METOP-C) Time (METOP-C) Lat,Lon (METOP-C) SZA (METOP-C ) Date (LANDSAT-8) Time (LANDSAT-8) Lat,Lon (LANDSAT-8) SZA (LANDSAT-8 ) Distance(km) Time Diff (sec)
1 04/07/2024 15:57:18 -81.15, 160.36 104.04 04/07/2024 15:57:48 -81.14, 160.20 104.05 2.77 30
2 04/07/2024 16:47:57 81.17, -31.74 76.02 04/07/2024 16:47:13 81.17, -31.70 76.01 1.03 44
3 04/10/2024 11:31:37 -81.15,-133.11 105.05 04/10/2024 11:32:02 -81.15,-133.23 105.05 1.99 25
4 04/10/2024 12:22:17 81.16, 34.43 74.97 04/10/2024 12:21:28 81.15, 34.47 74.95 0.82 49
5 04/13/2024 07:05:56 -81.15, -66.65 106.05 04/13/2024 07:06:16 -81.15, -66.82 106.06 2.94 20
6 04/13/2024 07:56:35 81.17, 101.29 74.02 04/13/2024 07:55:41 81.17, 101.22 73.99 1.35 54
7 04/16/2024 02:40:15 -81.14, -0.63 107.08 04/16/2024 02:40:29 -81.14, -0.58 107.07 0.95 14
8 04/16/2024 03:30:54 81.16, 167.33 72.99 04/16/2024 03:29:54 81.16, 167.43 72.98 1.61 60
9 04/18/2024 22:14:34 -81.13, 65.70 108.06 04/18/2024 22:14:42 -81.14, 65.87 108.03 2.85 8



Historial Predications of SNOs between METOP-C and LANDSAT-8
